This is the latest recevied weather packets stored in our database for station/object VK4RM-13. If no packets are shown the sender has not sent any weather packets the latest 10 day(s).
| Time | Temp. | Humidity | Pressure | Rain* | Wind** | Luminosity | Snow |
|---|---|---|---|---|---|---|---|
| 1777987597 | 21.11° C | 91% | 995.8 hPa | 0 mm | - | - | - |
| 1777986398 | 20.56° C | 91% | 995.8 hPa | 0 mm | - | - | - |
| 1777985798 | 20.56° C | 92% | 995.9 hPa | 0 mm | - | - | - |
| 1777984598 | 20.56° C | 91% | 996.1 hPa | 0 mm | - | - | - |
| 1777983998 | 20.56° C | 91% | 996 hPa | 0 mm | - | - | - |
| 1777983398 | 20.56° C | 91% | 996.2 hPa | 0 mm | - | - | - |
| 1777982198 | 20.56° C | 90% | 996.3 hPa | 0 mm | - | - | - |
| 1777981598 | 20.56° C | 91% | 996.2 hPa | 0 mm | - | - | - |
| 1777980398 | 20° C | 90% | 996.2 hPa | 0 mm | - | - | - |
| 1777979798 | 20° C | 90% | 996.3 hPa | 0 mm | - | - | - |
| 1777979199 | 20° C | 90% | 996.4 hPa | 0 mm | - | - | - |
| 1777978598 | 20° C | 90% | 996.5 hPa | 0 mm | - | - | - |
| 1777977998 | 20° C | 90% | 996.5 hPa | 0 mm | - | - | - |
| 1777976798 | 19.44° C | 89% | 996.4 hPa | 0 mm | - | - | - |
| 1777974998 | 19.44° C | 88% | 996 hPa | 0 mm | - | - | - |
| 1777974398 | 20° C | 88% | 995.9 hPa | 0 mm | - | - | - |
| 1777973198 | 20° C | 87% | 995.7 hPa | 0 mm | - | - | - |
| 1777972598 | 20° C | 86% | 995.6 hPa | 0 mm | - | - | - |
| 1777971398 | 20.56° C | 85% | 995.3 hPa | 0 mm | - | - | - |
| 1777970798 | 20.56° C | 85% | 995.2 hPa | 0 mm | - | - | - |
| 1777969598 | 21.11° C | 84% | 994.9 hPa | 0 mm | - | - | - |
| 1777968998 | 21.11° C | 84% | 994.8 hPa | 0 mm | - | - | - |
| 1777967798 | 21.67° C | 84% | 994.5 hPa | 0 mm | - | - | - |
| 1777967198 | 21.67° C | 83% | 994.3 hPa | 0 mm | - | - | - |
| 1777965998 | 22.78° C | 81% | 994.2 hPa | 0 mm | - | - | - |
* Rain latest hour (hover to see other rain measurements)
** Current wind speed in m/s (hover to see current wind gust speed)